This is the latest recevied weather packets stored in our database for station/object SQ5LTL-2. If no packets are shown the sender has not sent any weather packets the latest 10 day(s).
| Time | Temp. | Humidity | Pressure | Rain* | Wind** | Luminosity | Snow |
|---|---|---|---|---|---|---|---|
| 1777361134 | 6.67° C | 48% | 1026 hPa | 0 mm | - | 417 W/m² | - |
| 1777360833 | 6.11° C | 48% | 1026 hPa | 0 mm | - | 401 W/m² | - |
| 1777360532 | 6.11° C | 52% | 1026 hPa | 0 mm | - | 369 W/m² | - |
| 1777360230 | 6.11° C | 52% | 1026.1 hPa | 0 mm | - | 341 W/m² | - |
| 1777359929 | 6.11° C | 52% | 1026 hPa | 0 mm | - | 359 W/m² | - |
| 1777359627 | 6.11° C | 53% | 1025.9 hPa | 0 mm | - | 355 W/m² | - |
| 1777359325 | 5.56° C | 54% | 1026 hPa | 0 mm | - | 336 W/m² | - |
| 1777359024 | 5.56° C | 56% | 1026 hPa | 0 mm | - | 327 W/m² | - |
| 1777358121 | 5° C | 59% | 1025.9 hPa | 0 mm | - | 283 W/m² | - |
| 1777357819 | 5° C | 60% | 1025.7 hPa | 0 mm | - | 235 W/m² | - |
| 1777357517 | 5° C | 60% | 1025.9 hPa | 0 mm | - | 245 W/m² | - |
| 1777357217 | 5° C | 61% | 1025.8 hPa | 0 mm | - | 263 W/m² | - |
| 1777356934 | 5° C | 62% | 1025.9 hPa | 0 mm | - | 258 W/m² | - |
| 1777356632 | 5° C | 63% | 1025.8 hPa | 0 mm | - | 243 W/m² | - |
| 1777356331 | 4.44° C | 63% | 1025.8 hPa | 0 mm | - | 218 W/m² | - |
| 1777356030 | 4.44° C | 63% | 1025.8 hPa | 0 mm | - | 209 W/m² | - |
| 1777355729 | 4.44° C | 64% | 1025.7 hPa | 0 mm | - | 196 W/m² | - |
| 1777355428 | 3.89° C | 65% | 1025.7 hPa | 0 mm | - | 184 W/m² | - |
| 1777354824 | 3.33° C | 65% | 1025.7 hPa | 0 mm | - | 166 W/m² | - |
| 1777354523 | 3.89° C | 65% | 1025.7 hPa | 0 mm | - | 157 W/m² | - |
| 1777354221 | 3.33° C | 65% | 1025.6 hPa | 0 mm | - | 147 W/m² | - |
| 1777353920 | 3.33° C | 65% | 1025.5 hPa | 0 mm | - | 138 W/m² | - |
| 1777353618 | 3.33° C | 66% | 1025.5 hPa | 0 mm | - | 129 W/m² | - |
| 1777353318 | 2.78° C | 67% | 1025.5 hPa | 0 mm | - | 120 W/m² | - |
| 1777353035 | 2.78° C | 67% | 1025.4 hPa | 0 mm | - | 111 W/m² | - |
* Rain latest hour (hover to see other rain measurements)
** Current wind speed in m/s (hover to see current wind gust speed)